Regional Weather Roundup
Issued by NWS

Home | Current Version | Previous Version | Graphics & Text | Print | Product List | Glossary Off
Versions: 1 2 3 4 5 6 7 8 9 10 11 12 13 14 15 16 17 18 19 20 21 22 23 24 25 26 27 28 29 30 31 32 33 34 35 36 37 38 39 40 41 42 43 44 45 46 47 48 49 50

000
ASUS43 KTOP 242259
RWRKS

WEATHER ROUNDUP FOR KANSAS
NATIONAL WEATHER SERVICE GOODLAND KS
500 PM CST FRI NOV 24 2017

NOTE:  "FAIR" INDICATES FEW OR NO CLOUDS BELOW 12,000 FEET WITH NO
SIGNIFICANT WEATHER AND/OR OBSTRUCTIONS TO VISIBILITY.

KSZ001>006-013>018-027>032-041>047-250000-
NORTHWEST KANSAS

CITY           SKY/WX    TMP DP  RH WIND       PRES   REMARKS
GOODLAND       CLOUDY    61  34  36 N12       29.85R
HAYS           PTCLDY    67  38  34 NE13      29.77R
HILL CITY      PTCLDY    64  38  38 NE12      29.80R
RUSSELL        CLOUDY    67  38  34 N13       29.76R
$$

KSZ061>065-074>080-084>089-250000-
SOUTHWEST KANSAS

CITY           SKY/WX    TMP DP  RH WIND       PRES   REMARKS
DODGE CITY     CLEAR     68  37  32 NE5       29.76R
GARDEN CITY    CLEAR     73  31  21 NE18G33   29.76R
GREAT BEND     CLOUDY    71  38  29 N14       29.76R
LIBERAL        CLOUDY    70  33  25 N8        29.73R
$$

KSZ066>073-081>083-090>101-250000-
SOUTHEAST KANSAS

CITY           SKY/WX    TMP DP  RH WIND       PRES   REMARKS
CHANUTE        MOCLDY    68  40  35 S9        29.68R
COFFEYVILLE    MOCLDY    72  39  30 S12       29.68S
HUTCHINSON     PTCLDY    76  38  25 N13       29.71R
MEDICINE LODGE   N/A     70  39  32 CALM      29.71R
NEWTON         CLEAR     70  40  33 VRB3      29.72R
PARSONS        CLOUDY    71  40  32 S6        29.69R
WICHITA INTL   MOCLDY    67  44  43 SW6       29.69R
WICHITA JABRA  CLOUDY    70  39  32 SW7       29.69R
WICHITA MCCONL CLOUDY    68  39  35 SW6       29.69R
WINFIELD       CLEAR     72  41  32 SW10      29.70R
$$

KSZ007>012-019>026-033>040-048>060-102>105-250000-
NORTHEAST KANSAS

CITY           SKY/WX    TMP DP  RH WIND       PRES   REMARKS
CONCORDIA      MOCLDY    65  41  41 N9        29.75R
EMPORIA        CLEAR     72  39  30 W12       29.67R
LAWRENCE       CLOUDY    71  41  33 NW14      29.62R
MANHATTAN      CLOUDY    70  38  31 N9        29.70R
OLATHE IND     CLOUDY    67  42  40 SW9       29.64R
OLATHE EXE     CLOUDY    67  40  37 SW6       29.63R
SALINA         CLOUDY    72  39  30 N18       29.73R
TOPEKA BILLARD PTCLDY    71  41  33 N20G29    29.65R
TOPEKA FORBES  CLOUDY    72  41  32 N13       29.65R
$$



USA.gov is the U.S. government's official web portal to all federal, state and local government web resources and services.